Location: Bessat
(45.8735°N, 1.9924°E)
Time: 20:48:21
(UTC+00:00)

Cosmos 1500 - Pass Details

Date: 11 May 2021
Orbit: 497 x 518 km, 82.5° (Epoch: 20 June)

Event Time Altitude Azimuth Distance (km) Brightness Sun altitude
Rises 21:23:28 0° 343° (NNW) 2,612 8.1 -18.1°
Reaches altitude 10° 21:25:42 10° 334° (NNW) 1,718 7.1 -18.3°
Maximum altitude 21:29:09 35° 268° (W) 825 4.5 -18.7°
Enters shadow 21:31:04 21° 216° (SW) 1,176 4.8 -18.9°
